Tracking 19920 objects as of 15-Oct-2019
HD Live streaming from Space Station
objects crossing your sky now

OPS 3151

Track OPS 3151 now!
OPS 3151 is classified as:


NORAD ID: 9803
Int'l Code: 1977-007A
Perigee: 36,218.4 km
Apogee: 36,941.2 km
Inclination: 10.7 °
Period: 1,476.4 minutes
Semi major axis: 42950 km
RCS: Unknown
Launch date: February 6, 1977
Source: United States (US)
Launch site: AIR FORCE EASTERN TEST RANGE (AFETR)
aabbcc
Your satellite tracking list
Your tracking list is empty




NASA's NSSDC Master Catalog

Two Line Element Set (TLE):
1  9803U 77007A   19287.83042514 -.00000165 +00000-0 +00000-0 0  9998
2  9803 010.6635 309.8622 0084139 336.2597 030.5464 00.97531734000880
Source of the keplerian elements: McCants